TimeMST,TemperatureF,Dew PointF,Humidity,Sea Level PressureIn,VisibilityMPH,Wind Direction,Wind SpeedMPH,Gust SpeedMPH,PrecipitationIn,Events,Conditions,WindDirDegrees,DateUTC
12:24 AM,6.8,3.2,85,29.92,0.2,Calm,Calm,-,N/A,Fog,Light Freezing Fog,0,2013-02-11 07:24:00
12:37 AM,6.8,3.2,85,29.92,-9999.0,North,-9999.0,-,N/A,,Unknown,0,2013-02-11 07:37:00
12:54 AM,-9999,-9999,N/A,29.91,-9999.0,North,-9999.0,-,N/A,,Unknown,0,2013-02-11 07:54:00
1:54 AM,-4.0,-9.0,79,30.12,10.0,ENE,4.6,-,N/A,,Partly Cloudy,60,2013-02-11 08:54:00
2:54 AM,-7.1,-13.0,75,30.12,10.0,Calm,Calm,-,N/A,,Clear,0,2013-02-11 09:54:00
3:07 AM,-9.4,-14.8,77,29.93,10.0,Calm,Calm,-,N/A,,Scattered Clouds,0,2013-02-11 10:07:00
3:15 AM,-7.6,-13.0,77,29.93,10.0,Calm,Calm,-,N/A,,Mostly Cloudy,0,2013-02-11 10:15:00
3:50 AM,-5.8,-9.4,84,29.92,1.8,Calm,Calm,-,N/A,,Overcast,0,2013-02-11 10:50:00
3:51 AM,-5.8,-9.4,84,29.92,1.2,Calm,Calm,-,N/A,,Overcast,0,2013-02-11 10:51:00
3:54 AM,-6.0,-9.0,87,30.10,0.5,Calm,Calm,-,N/A,Fog,Light Freezing Fog,0,2013-02-11 10:54:00
4:05 AM,-5.8,-9.4,84,29.92,0.2,Calm,Calm,-,N/A,Fog,Light Freezing Fog,0,2013-02-11 11:05:00
4:15 AM,-5.8,-9.4,84,29.92,1.0,Calm,Calm,-,N/A,,Mist,0,2013-02-11 11:15:00
4:17 AM,-5.8,-9.4,84,29.91,2.5,Calm,Calm,-,N/A,,Overcast,0,2013-02-11 11:17:00
4:24 AM,-5.8,-11.2,77,29.92,10.0,Calm,Calm,-,N/A,,Overcast,0,2013-02-11 11:24:00
4:40 AM,-5.8,-11.2,77,29.91,-9999.0,North,-9999.0,-,N/A,,Unknown,0,2013-02-11 11:40:00
4:54 AM,-7.1,-11.9,79,30.12,-9999.0,ENE,5.8,-,N/A,,Unknown,60,2013-02-11 11:54:00
5:54 AM,-9.9,-16.1,74,30.14,10.0,Calm,Calm,-,N/A,,Clear,0,2013-02-11 12:54:00
6:54 AM,-11.0,-17.0,75,30.16,2.5,NE,3.5,-,N/A,,Haze,50,2013-02-11 13:54:00
7:03 AM,-11.2,-16.6,77,29.92,1.8,ENE,3.5,-,N/A,,Haze,60,2013-02-11 14:03:00
7:09 AM,-11.2,-16.6,77,29.93,3.0,Calm,Calm,-,N/A,,Haze,0,2013-02-11 14:09:00
7:17 AM,-11.2,-18.4,70,29.93,2.5,Calm,Calm,-,N/A,,Haze,0,2013-02-11 14:17:00
7:27 AM,-11.2,-16.6,77,29.93,1.2,Calm,Calm,-,N/A,,Haze,0,2013-02-11 14:27:00
7:36 AM,-11.2,-18.4,70,29.94,1.0,NE,4.6,-,N/A,,Haze,40,2013-02-11 14:36:00
7:41 AM,-11.2,-16.6,77,29.94,1.5,NE,3.5,-,N/A,,Haze,50,2013-02-11 14:41:00
7:54 AM,-9.9,-15.0,78,30.17,-9999.0,North,-9999.0,-,N/A,,Unknown,0,2013-02-11 14:54:00
8:25 AM,-5.8,-9.4,84,29.95,2.0,Calm,Calm,-,N/A,,Mist,0,2013-02-11 15:25:00
8:37 AM,-4.0,-7.6,85,29.95,-9999.0,North,-9999.0,-,N/A,,Unknown,0,2013-02-11 15:37:00
8:54 AM,-9999,-9999,N/A,29.94,-9999.0,Calm,Calm,-,N/A,,Unknown,0,2013-02-11 15:54:00
9:01 AM,6.8,6.8,100,29.95,0.8,Calm,Calm,-,N/A,,Mist,0,2013-02-11 16:01:00
9:09 AM,8.6,8.6,100,29.96,10.0,Calm,Calm,-,N/A,,Unknown,0,2013-02-11 16:09:00
9:54 AM,15.1,12.0,88,30.16,10.0,Calm,Calm,-,N/A,,Clear,0,2013-02-11 16:54:00
10:54 AM,21.9,12.9,68,30.10,10.0,NE,4.6,-,N/A,,Partly Cloudy,50,2013-02-11 17:54:00
11:54 AM,28.0,12.9,53,30.09,10.0,NE,4.6,-,N/A,,Partly Cloudy,50,2013-02-11 18:54:00
12:54 PM,27.0,19.0,72,29.97,10.0,WSW,6.9,-,N/A,,Mostly Cloudy,250,2013-02-11 19:54:00
1:04 PM,26.6,19.4,74,29.97,1.8,Variable,6.9,-,0.00,Snow,Light Snow,0,2013-02-11 20:04:00
1:11 PM,24.8,17.6,74,29.97,10.0,West,6.9,-,0.00,Snow,Light Snow,270,2013-02-11 20:11:00
1:54 PM,26.1,19.0,75,30.14,10.0,SW,6.9,-,0.00,,Mostly Cloudy,220,2013-02-11 20:54:00
2:54 PM,26.1,14.0,60,30.16,10.0,SW,4.6,-,N/A,,Mostly Cloudy,220,2013-02-11 21:54:00
3:01 PM,26.6,14.0,59,29.97,10.0,WSW,4.6,-,N/A,,Mostly Cloudy,250,2013-02-11 22:01:00
3:54 PM,26.1,17.1,69,30.17,10.0,South,5.8,-,N/A,,Mostly Cloudy,180,2013-02-11 22:54:00
4:54 PM,25.0,18.0,75,30.19,10.0,SSE,4.6,-,N/A,,Mostly Cloudy,160,2013-02-11 23:54:00
5:54 PM,24.1,18.0,77,30.23,10.0,Calm,Calm,-,0.00,,Mostly Cloudy,0,2013-02-12 00:54:00
6:54 PM,18.0,12.0,78,30.29,10.0,Calm,Calm,-,N/A,,Mostly Cloudy,0,2013-02-12 01:54:00
7:54 PM,7.0,3.9,87,30.36,10.0,Calm,Calm,-,N/A,,Partly Cloudy,0,2013-02-12 02:54:00
8:54 PM,1.9,-2.9,80,30.07,10.0,Calm,Calm,-,N/A,,Clear,0,2013-02-12 03:54:00
9:54 PM,-2.9,-7.1,82,30.31,10.0,Calm,Calm,-,N/A,,Clear,0,2013-02-12 04:54:00
10:54 PM,-5.1,-9.9,80,30.29,10.0,Calm,Calm,-,N/A,,Clear,0,2013-02-12 05:54:00
11:54 PM,-8.0,-11.0,86,30.29,10.0,Calm,Calm,-,N/A,,Clear,0,2013-02-12 06:54:00